Regional Weather Roundup
Issued by NWS Bismarck, ND

Home | Current Version | Previous Version | Text Only | Print | Product List | Glossary On
Versions: 1 2 3 4 5 6 7 8 9 10 11 12 13 14 15 16 17 18 19 20 21 22 23 24 25 26 27 28 29 30 31 32 33 34 35 36 37 38 39 40 41 42 43 44 45 46 47 48 49 50
000
ASUS43 KBIS 302210
RWRBIS

NWR BROADCAST TEXT
NATIONAL WEATHER SERVICE BISMARCK ND
500 PM CDT SAT JUL 30 2016

NOTE: "FAIR" INDICATES FEW OR NO CLOUDS BELOW 12,000 FEET WITH NO
SIGNIFICANT WEATHER AND/OR OBSTRUCTIONS TO VISIBILITY.


CITY           SKY/WX    TMP DP  RH WIND       PRES   REMARKS
WILLISTON      SUNNY     89  49  25 SE8       29.79F
MINOT          MOSUNNY   88  60  38 MISG      29.81F
MINOT AFB      SUNNY     83  57  40 S8        29.80F
BISMARCK       MOSUNNY   86  66  51 SE14      29.82F
DICKINSON      SUNNY     86  51  29 W8        29.81F
GARRISON         N/A     84  65  52 SW7       29.82F
HETTINGER ARPT MOSUNNY   91  54  28 VRB5      29.83F
JAMESTOWN      CLOUDY    78  60  53 S15G22    29.88F
BEACH          FAIR      88  50  27 S6        29.84F
CARRINGTON     FAIR      75  64  69 SE12      29.90S
HAZEN          FAIR      82  63  51 S6        29.82F
LINTON         FAIR      84  68  58 S15       29.86F
MANDAN         FAIR      84  64  51 SE14      29.84F
OAKES            N/A    N/A N/A N/A MISG        N/A
STANLEY        FAIR      81  61  50 SE8       29.86F
WATFORD CITY   MOCLDY    86  54  32 E9G18     29.80F
$$

CITY           SKY/WX    TMP DP  RH WIND       PRES   REMARKS
GRAND FORKS    CLOUDY    78  61  55 S12       29.90S
GRAND FORKS AF CLOUDY    78  63  58 S15       29.90F
DEVILS LAKE    LGT RAIN  71  66  84 SE9       29.88
FARGO          CLOUDY    80  59  48 S16G23    29.92F
CAVALIER       FAIR      81  66  61 S12G21    29.87F
GRAFTON        FAIR      77  66  69 S10       29.91S
GWINNER        FAIR      82  61  47 SE14      29.93S
LANGDON        FAIR      75  66  73 S15G22    29.90S
ROLLA            N/A     77  64  65 S14G21    29.87F
$$

CITY           SKY/WX    TMP DP  RH WIND       PRES   REMARKS
ABERDEEN       SUNNY     84  58  40 S14       29.90F
MOBRIDGE       SUNNY     92  53  26 SE13      29.80F
BUFFALO          N/A     93  49  22 SE12G17   29.76F HX  90
RAPID CITY     TSTM      83  55  38 SW9       29.85S
GLASGOW        SUNNY     89  51  27 SE12G20   29.72F
SIDNEY         SUNNY     91  48  22 E7        29.77F
WOLF POINT     SUNNY     92  52  25 VRB6      29.75F
GLENDIVE       SUNNY     90  53  28 SE7       29.78F
MILES CITY     SUNNY     96  47  18 VRB6      29.73F HX  92
BAKER          SUNNY     90  54  29 SE8       29.82F
$$

CITY           SKY/WX    TMP DP  RH WIND       PRES   REMARKS
BILLINGS       MOSUNNY   94  43  17 SW9       29.77F HX  90
GREAT FALLS    SUNNY     93  31  11 SW15G23   29.73F
REGINA         PTSUNNY   84  57  39 S9        29.78F
ESTEVAN        MOSUNNY   82  55  39 S2        29.80F
$$





USA.gov is the U.S. government's official web portal to all federal, state and local government web resources and services.